Regional Weather Roundup
Issued by NWS

Home | Current Version | Previous Version | Text Only | Print | Product List | Glossary On
Versions: 1 2 3 4 5 6 7 8 9 10 11 12 13 14 15 16 17 18 19 20 21 22 23 24 25 26 27
000
ASUS45 KTFX 101310
RWRMT
MONTANA REGIONAL WEATHER ROUNDUP
NATIONAL WEATHER SERVICE GREAT FALLS MT
600 AM MST SAT DEC 10 2016

NOTE: "FAIR" INDICATES FEW OR NO CLOUDS BELOW 12000 FEET WITH NO
SIGNIFICANT WEATHER AND/OR OBSTRUCTIONS TO VISIBILITY.

MTZ001>007-043-101400-
WEST OF THE DIVIDE

CITY           SKY/WX    TMP DP  RH WIND       PRES   REMARKS
KALISPELL      SNOW      10   6  84 NW3       29.81F VSB 1/2
MISSOULA       LGT SNOW  16  14  92 CALM      29.78F FOG
BUTTE          CLOUDY    20  17  88 SE6       29.71F FOG     WCI  12
MULLAN PASS    SNOW      21  19  92 MISG      29.57F VSB 1/2
ANACONDA         N/A     25  21  86 S6        29.70F WCI  18
DEER LODGE       N/A     14  10  85 CALM      29.74F
EUREKA           N/A      7   3  85 CALM      29.88F VSB 1
HAMILTON         N/A     16  12  86 CALM      29.75F
LIBBY            N/A     12   9  85 CALM      29.83F VSB 1/2
PLAINS           N/A     15   8  73 CALM      29.84F
RONAN            N/A     12   7  81 CALM      29.82F
$$

MTZ008-052>055-101400-
SOUTHWEST MONTANA

CITY           SKY/WX    TMP DP  RH WIND       PRES   REMARKS
BOZEMAN        CLOUDY    12   8  84 CALM      29.78F
DILLON         CLOUDY    18  13  80 CALM      29.73F
W YELLOWSTONE  CLOUDY    27  25  93 NW3       29.78F
THREE FORKS      N/A     12 -23  19 CALM      29.81F
TWIN BRIDGES     N/A     17  10  74 SE3       29.77F
$$

MTZ009-010-012-014-046-048-049-054-101400-
EAST SLOPES AND CENTRAL MONTANA

CITY           SKY/WX    TMP DP  RH WIND       PRES   REMARKS
CUT BANK       CLOUDY     0  -3  87 SE7       29.78F WCI -13
GREAT FALLS    CLOUDY    -1  -5  82 CALM      29.79F
MALMSTROM AFB  CLOUDY     1  -1  91 S1        29.81F
HELENA         CLOUDY     6   2  83 CALM      29.81F
AUGUSTA          N/A     -4  -7  87 CALM      29.71F
BOWMANS CRNR     N/A     -6  -9  85 NE6       29.71F WCI -19
CHOTEAU          N/A     -4  -8  84 MISG      29.79F
CONRAD           N/A     -2  -5  87 CALM      29.84F
FAIRFIELD        N/A     -3  -7  83 SW1       29.78F
POWER            N/A     -2  -7  78 NE2       29.78F
RAYNESFORD     MOCLDY     4   0  83 NW5       29.77F
ULM            MOCLDY    -2  -5  87 NW9       29.81F WCI -17
$$

MTZ011-013-016-021-045-047-050-051-101400-
NORTH CENTRAL MONTANA

CITY           SKY/WX    TMP DP  RH WIND       PRES   REMARKS
HAVRE          LGT SNOW   4   0  83 E10       29.93F FOG     WCI -11
LEWISTOWN      CLOUDY     7   2  80 N3        29.75F
N BAR RANCH    CLOUDY     7   3  85 E3        29.76F
CHINOOK          N/A      3  -2  78 E9G18     29.96F WCI -11
DENTON         CLOUDY     5   3  89 MISG      29.79S
FORT BENTON      N/A      9   1  72 N7        29.89F WCI  -3
GEYSER         CLOUDY     5   1  85 NE2       29.77F
GRASS RANGE    MOCLDY     6   3  87 NW2       29.77F
JUDITH GAP     FLURRIES   5   1  83 MISG      29.75F
ROY            MOCLDY     5   2  90 MISG      29.80F
STANFORD       CLOUDY     6   2  86 N1        29.72F
WINIFRED       FLURRIES   4   2  91 MISG      29.80F
$$

MTZ017>020-022>027-061-062-101400-
NORTHEAST MONTANA

CITY           SKY/WX    TMP DP  RH WIND       PRES   REMARKS
GLASGOW        CLOUDY    -3  -8  79 E17       30.05F WCI -24
JORDAN           N/A      4  -1  80 E12       29.98F WCI -12
SIDNEY         CLOUDY    -7 -11  83 E5        30.20F
WOLF POINT     CLOUDY    -5 -12  72 E15       30.16F WCI -26
PLENTYWOOD       N/A    -11 -17  77 E6        30.19F WCI -25
SCOBEY           N/A     -8 -20  56 E3        30.10F
$$

MTZ028>42-056>058-101400-
SOUTHCENTRAL AND SOUTHEAST MONTANA

CITY           SKY/WX    TMP DP  RH WIND       PRES   REMARKS
BAKER          FLURRIES  -1  -6  79 SE20      30.03F WCI -23
BILLINGS       LGT SNOW   7   4  87 S3        29.85F FOG
LIVINGSTON     CLOUDY    11   5  77 W5        29.77F
MILES CITY     CLOUDY     7   1  76 SE8       30.01F WCI  -6
BIG TIMBER     CLOUDY     9   5  85 CALM      29.81F FOG
EKALAKA          N/A      0  -8  68 E18       29.91F WCI -21
FORSYTH          N/A      7   3  85 E9        29.96F WCI  -7
HARLOWTON      FLURRIES   6   3  86 SE2       29.80F
LAUREL           N/A      8  -1  66 CALM      29.85F
ROUNDUP          N/A      9   1  69 S6        29.79F WCI  -1
$$

REGIONAL REPORTS...DAKOTAS

CITY           SKY/WX    TMP DP  RH WIND       PRES   REMARKS
WILLISTON      CLOUDY   -10 -16  74 NE7       30.24F WCI -25
MINOT          CLOUDY   -20 -24  82 S3        30.33F
DICKINSON      CLOUDY    -7 -12  79 SE10      30.13F WCI -25
BEACH          CLOUDY    -2  -6  84 SE16      30.11F WCI -23
CROSBY         MOCLDY   -20 -26  76 CALM      30.29F
TIOGA            N/A    -22 -26  83 E5        30.24F
WATFORD CITY     N/A    -11 -17  77 E8        30.22F WCI -28
BISMARCK       CLOUDY   -16 -20  82 E7        30.36F FOG     WCI -32
GRAND FORKS    CLOUDY    -5 -11  75 NW3       30.51F
FARGO          CLOUDY    -6 -12  75 CALM      30.51F
BUFFALO SD       N/A      0  -4  83 SE13      29.99F WCI -18
RAPID CITY     CLOUDY     1  -3  83 SE8       30.05F WCI -13
$$

REGIONAL REPORTS...WYOMING/IDAHO/WASHINGTON

CITY           SKY/WX    TMP DP  RH WIND       PRES   REMARKS
GILLETTE       CLOUDY     2  -1  88 S9        29.86F WCI -13
SHERIDAN       CLOUDY    11   5  77 CALM      29.87F
BUFFALO WY     CLOUDY     8   2  76 N5        29.80F
CODY           CLOUDY    12   8  84 CALM      29.77F
YELLOWSTONE LA   N/A     26  24  92 VRB7      29.77F WCI  18
IDAHO FALLS    LGT RAIN  34  32  92 S18G26    29.85F WCI  23
SALMON         CLOUDY    19  18  93 CALM      29.82F
BOISE          CLOUDY    33  33 100 S3        29.84F FOG
SPOKANE        SNOW      19  16  88 N3        29.77F VSB 1/2
$$

REGIONAL REPORTS...ALBERTA

CITY           SKY/WX    TMP DP  RH WIND       PRES   REMARKS
EDMONTON       CLOUDY   -15 -22  70 E6        30.05F WCI -29
CALGARY        CRYSTALS  -9 -15  77 S5        29.81F
LETHBRIDGE     MOCLDY    -2  -4  92 SE6       29.86F WCI -14
MEDICINE HAT   FLURRIES  -2  -8  78 N5        29.98F
WATERTON GATE    N/A     -8 -13  77 CALM        N/A
CARDSTON         N/A     -8 -13  77 W2          N/A
MILK RIVER       N/A      1  -2  85 SE8         N/A  WCI -12
ONEFOUR          N/A      0  -4  85 E15         N/A  WCI -20
$$

REGIONAL REPORTS...SASKATCHEWAN

CITY           SKY/WX    TMP DP  RH WIND       PRES   REMARKS
SWIFT CURRENT  CLOUDY    -4  -8  84 SE14      30.01F WCI -24
REGINA         PTCLDY   -17 -22  76 SE10      30.25F WCI -37
SASKATOON      CRYSTALS -11 -17  77 E6        30.26F WCI -25
CYPRESS HILLS    N/A     -6 -11  77 SE9         N/A  WCI -22
VAL MARIE        N/A     -2  -8  78 E12         N/A  WCI -20
ASSINIBOIA       N/A    -15 -20  76 SE1         N/A
$$




USA.gov is the U.S. government's official web portal to all federal, state and local government web resources and services.